�N����,����,�~����,�C��,���x,�C��,����,���ϕ���,�ő�u�ԕ���,�ő厞����,���˗�,�I�_���x,�n�����x,�ő啗���N��,DTYPE
"20/09/25","00:10",0.4,21.9,91.5,1004.1,321.3,1.6,2.5,342.1,0.00,20.5,23.7,"00:01:12",1
"20/09/25","00:20",0.4,21.9,91.8,1003.8,323.3,1.7,2.6,327.7,0.00,20.5,23.7,"00:13:20",1
"20/09/25","00:30",0.4,21.8,92.0,1003.6,312.7,1.5,3.4,343.9,0.00,20.5,23.7,"00:21:12",1
"20/09/25","00:40",0.4,21.7,92.3,1003.8,320.4,1.5,2.4,341.3,0.00,20.4,23.7,"00:35:04",1
"20/09/25","00:50",0.4,21.7,92.5,1003.6,309.1,1.2,2.2,310.6,0.00,20.5,23.5,"00:42:32",1
"20/09/25","01:00",0.4,21.7,92.7,1003.4,323.7,1.3,2.5,334.4,0.00,20.5,23.6,"00:57:20",1
"20/09/25","01:10",0.4,21.6,92.8,1003.1,327.5,0.8,2.0,339.7,0.00,20.4,23.4,"01:02:48",1
"20/09/25","01:20",0.4,21.5,93.1,1003.1,281.4,0.3,0.8,335.3,0.00,20.4,23.5,"01:10:16",1
"20/09/25","01:30",0.2,21.4,93.1,1002.9,228.9,0.1,0.6,116.0,0.00,20.3,23.5,"01:20:08",1
"20/09/25","01:40",0.0,21.4,93.3,1003.1,325.5,0.5,1.1,314.6,0.00,20.3,23.3,"01:39:44",1
"20/09/25","01:50",0.2,21.4,93.5,1002.9,313.3,0.7,1.2,308.5,0.00,20.3,23.3,"01:40:56",1
"20/09/25","02:00",0.2,21.3,93.6,1003.1,337.8,0.7,1.4,334.0,0.00,20.3,23.5,"01:54:48",1
"20/09/25","02:10",0.0,21.2,93.6,1002.9,267.9,0.2,0.8,324.7,0.00,20.2,23.4,"02:00:24",1
"20/09/25","02:20",0.0,21.3,93.8,1002.9,322.9,0.2,0.8,352.0,0.00,20.3,23.4,"02:16:16",1
"20/09/25","02:30",0.0,21.2,93.8,1003.1,307.3,0.5,0.9,331.0,0.00,20.2,23.4,"02:26:00",1
"20/09/25","02:40",0.2,21.2,94.0,1003.1,329.8,0.5,1.0,358.7,0.00,20.2,23.3,"02:37:28",1
"20/09/25","02:50",0.0,21.2,94.0,1002.4,322.8,0.6,1.0,326.1,0.00,20.2,23.5,"02:42:40",1
"20/09/25","03:00",0.2,21.2,94.2,1002.4,237.8,0.6,1.0,236.0,0.00,20.3,23.4,"02:52:08",1
"20/09/25","03:10",0.0,21.2,94.2,1002.6,262.7,0.5,0.9,256.6,0.00,20.3,23.3,"03:08:40",1
"20/09/25","03:20",0.2,21.2,94.3,1002.4,302.7,0.5,1.2,342.8,0.00,20.3,23.4,"03:18:16",1
"20/09/25","03:30",0.2,21.2,94.4,1001.9,332.0,0.6,1.1,345.3,0.00,20.3,23.3,"03:22:16",1
"20/09/25","03:40",0.4,21.1,94.4,1002.4,295.3,0.5,1.0,331.8,0.00,20.2,23.1,"03:31:12",1
"20/09/25","03:50",0.2,21.1,94.5,1002.4,271.0,0.5,0.6,272.7,0.00,20.2,23.3,"03:47:28",1
"20/09/25","04:00",0.2,21.1,94.6,1002.2,307.0,0.6,1.4,340.8,0.00,20.2,23.2,"03:58:32",1
"20/09/25","04:10",0.4,21.1,94.6,1002.2,313.8,0.7,1.2,327.4,0.00,20.2,23.2,"04:00:32",1
"20/09/25","04:20",0.2,21.0,94.7,1001.9,272.8,0.6,0.9,303.0,0.00,20.2,23.1,"04:18:24",1
"20/09/25","04:30",0.2,21.0,94.8,1002.2,270.0,0.6,1.2,262.2,0.00,20.2,23.1,"04:26:40",1
"20/09/25","04:40",0.0,20.9,94.8,1001.9,285.3,0.3,1.1,249.1,0.00,20.1,23.1,"04:34:48",1
"20/09/25","04:50",0.2,21.0,94.9,1001.9,324.6,0.6,1.1,347.8,0.00,20.2,23.0,"04:46:40",1
"20/09/25","05:00",0.2,20.9,94.9,1001.7,313.3,0.6,1.3,337.4,0.00,20.1,23.2,"04:52:32",1
"20/09/25","05:10",0.4,20.9,95.0,1001.5,296.7,0.2,0.9,260.6,0.00,20.1,23.2,"05:09:36",1
"20/09/25","05:20",0.2,20.7,95.1,1001.5,267.8,0.6,1.2,270.0,0.00,19.9,23.1,"05:18:56",1
"20/09/25","05:30",0.6,20.7,95.2,1001.5,279.0,0.5,1.1,237.9,0.00,19.9,23.1,"05:29:12",1
"20/09/25","05:40",0.6,20.7,95.2,1001.5,291.8,0.7,1.2,327.1,0.00,19.9,23.1,"05:38:48",1
"20/09/25","05:50",0.8,20.6,95.3,1001.5,274.0,0.5,1.2,324.7,0.00,19.9,23.1,"05:48:56",1
"20/09/25","06:00",0.6,20.6,95.3,1001.7,284.7,0.5,0.9,336.8,0.00,19.9,23.1,"05:51:28",1
"20/09/25","06:10",0.8,20.6,95.4,1001.2,288.0,0.6,1.0,252.8,0.00,19.9,23.1,"06:02:48",1
"20/09/25","06:20",0.8,20.5,95.4,1001.7,290.5,0.5,1.0,342.3,0.00,19.8,23.0,"06:11:12",1
"20/09/25","06:30",0.8,20.6,95.5,1001.9,283.3,0.5,0.8,265.9,0.00,19.9,23.0,"06:21:44",1
"20/09/25","06:40",1.6,20.5,95.5,1001.7,267.8,0.6,1.2,243.8,0.00,19.8,22.9,"06:38:24",1
"20/09/25","06:50",1.4,20.5,95.6,1001.5,265.3,0.6,1.0,242.7,0.00,19.8,22.8,"06:40:32",1
"20/09/25","07:00",1.2,20.4,95.6,1001.7,256.9,0.2,0.6,200.8,0.00,19.7,22.8,"06:54:24",1
"20/09/25","07:10",1.6,20.5,95.7,1001.5,304.3,0.6,1.1,319.9,0.00,19.8,22.7,"07:08:00",1
"20/09/25","07:20",1.6,20.4,95.8,1001.9,244.5,1.0,1.7,219.8,0.00,19.7,22.7,"07:18:56",1
"20/09/25","07:30",2.0,20.5,95.8,1001.5,211.0,0.7,1.4,231.6,0.00,19.8,22.7,"07:20:16",1
"20/09/25","07:40",1.8,20.4,95.8,1001.2,263.2,0.6,1.3,191.2,0.00,19.7,22.6,"07:32:00",1
"20/09/25","07:50",1.8,20.4,95.8,1001.7,316.3,0.3,0.8,308.5,0.00,19.7,22.5,"07:41:52",1
"20/09/25","08:00",1.8,20.4,95.9,1001.2,319.9,0.6,1.1,320.6,0.00,19.8,22.5,"07:56:40",1
"20/09/25","08:10",1.4,20.4,95.9,1001.0,348.7,0.5,1.1,352.0,0.00,19.8,22.4,"08:03:04",1
"20/09/25","08:20",0.8,20.5,96.0,1001.2,184.3,0.6,1.0,239.2,0.00,19.9,22.5,"08:12:24",1
"20/09/25","08:30",2.4,20.5,96.0,1000.5,336.4,1.2,2.0,321.3,0.00,19.9,22.5,"08:25:04",1
"20/09/25","08:40",2.4,20.4,96.0,1001.2,294.1,1.0,2.2,349.5,0.00,19.8,22.4,"08:31:04",1
"20/09/25","08:50",2.2,20.3,96.1,1000.3,302.8,1.1,2.5,242.5,0.00,19.7,22.2,"08:40:16",1
"20/09/25","09:00",1.6,20.3,96.2,1000.8,336.7,2.2,5.1,341.3,0.00,19.7,22.2,"08:53:04",1
"20/09/25","09:10",2.2,20.3,96.2,1000.8,313.1,1.7,3.4,305.8,0.00,19.7,22.0,"09:02:40",1
"20/09/25","09:20",1.6,20.3,96.3,1000.3,346.6,1.7,4.5,344.2,0.00,19.7,22.1,"09:18:08",1
"20/09/25","09:30",1.6,20.3,96.3,1000.3,326.6,1.8,4.5,338.9,0.00,19.7,21.9,"09:20:56",1
"20/09/25","09:40",1.4,20.3,96.3,1000.5,304.3,1.6,4.4,334.8,0.00,19.7,21.8,"09:32:16",1
"20/09/25","09:50",1.6,20.4,96.3,1001.0,263.0,0.7,1.9,276.7,0.00,19.8,22.0,"09:41:36",1
"20/09/25","10:00",2.2,20.4,96.3,1000.8,258.3,0.8,1.7,234.9,0.00,19.8,21.7,"09:54:16",1
"20/09/25","10:10",1.8,20.5,96.4,1000.5,339.5,0.8,2.4,306.6,0.01,19.9,21.7,"10:07:36",1
"20/09/25","10:20",0.8,20.5,96.4,1000.3,325.6,1.6,3.3,352.0,0.01,19.9,22.8,"10:15:12",1
"20/09/25","10:30",1.0,20.6,96.3,1000.5,266.8,1.1,2.9,308.0,0.00,20.0,22.6,"10:20:08",1
"20/09/25","10:40",0.6,20.5,96.3,1000.5,226.7,1.2,3.2,221.5,0.00,19.9,22.7,"10:37:44",1
"20/09/25","10:50",0.6,20.6,96.3,999.6,40.4,0.6,1.6,347.4,0.00,20.0,22.7,"10:40:48",1
"20/09/25","11:00",0.6,20.9,96.3,999.8,265.4,0.8,1.6,227.3,0.01,20.3,22.9,"10:50:56",1
"20/09/25","11:10",0.4,20.8,96.3,1000.0,255.8,0.6,1.4,238.8,0.01,20.2,22.9,"11:04:24",1
"20/09/25","11:20",0.6,20.9,96.4,999.8,317.6,1.0,1.9,319.3,0.03,20.3,22.9,"11:14:00",1
"20/09/25","11:30",0.6,20.9,96.4,999.8,338.4,1.0,2.6,350.0,0.03,20.3,22.9,"11:29:04",1
"20/09/25","11:40",0.2,21.0,96.5,999.3,338.9,1.1,1.8,336.0,0.07,20.5,23.2,"11:36:56",1
"20/09/25","11:50",0.2,21.2,96.5,999.3,328.9,0.8,1.7,309.8,0.05,20.7,23.3,"11:43:12",1
"20/09/25","12:00",0.0,21.4,96.5,998.9,343.4,0.5,1.0,317.3,0.07,20.9,23.2,"11:50:08",1
"20/09/25","12:10",0.2,21.5,96.4,998.6,170.3,0.6,1.7,131.0,0.05,20.9,23.3,"12:06:00",1
"20/09/25","12:20",0.0,21.8,96.3,998.4,183.8,0.6,1.3,220.6,0.09,21.2,23.5,"12:12:56",1
"20/09/25","12:30",0.0,21.8,96.2,998.9,211.3,1.6,2.6,197.7,0.11,21.2,23.6,"12:24:56",1
"20/09/25","12:40",0.0,22.2,96.2,998.9,240.2,1.5,2.4,234.4,0.10,21.6,25.4,"12:33:04",1
"20/09/25","12:50",0.0,22.2,96.2,998.6,309.8,1.0,1.8,326.4,0.06,21.6,25.5,"12:43:20",1
"20/09/25","13:00",0.0,22.0,96.1,998.4,318.7,1.2,3.2,337.4,0.06,21.4,25.3,"12:59:36",1
"20/09/25","13:10",0.0,21.9,96.3,998.4,327.0,2.2,4.2,341.0,0.09,21.3,25.4,"13:02:40",1
"20/09/25","13:20",0.0,22.1,96.2,998.4,318.1,1.7,3.7,337.2,0.09,21.5,25.7,"13:11:44",1
"20/09/25","13:30",0.0,21.7,96.1,998.2,338.4,2.1,4.9,334.2,0.05,21.1,23.3,"13:27:36",1
"20/09/25","13:40",0.2,21.7,96.0,998.6,332.5,1.8,4.5,315.4,0.01,21.1,23.2,"13:30:08",1
"20/09/25","13:50",1.2,21.5,95.9,998.2,344.5,1.8,3.5,339.5,0.03,20.9,23.5,"13:48:08",1
"20/09/25","14:00",1.2,21.3,96.0,998.4,324.7,2.5,4.3,329.2,0.04,20.7,23.5,"13:51:28",1
"20/09/25","14:10",0.2,21.6,96.0,997.9,290.9,1.1,2.1,323.9,0.06,21.0,23.5,"14:00:32",1
"20/09/25","14:20",0.6,21.8,95.9,998.2,293.5,0.7,1.6,315.5,0.04,21.2,23.2,"14:11:36",1
"20/09/25","14:30",0.2,21.6,95.9,998.2,311.6,1.1,2.6,324.2,0.06,21.0,23.4,"14:22:56",1
"20/09/25","14:40",0.4,21.7,95.9,997.7,326.4,1.1,2.1,334.8,0.07,21.1,23.3,"14:33:44",1
"20/09/25","14:50",0.0,21.8,95.9,997.7,327.9,0.3,1.2,344.4,0.06,21.2,23.4,"14:40:16",1
"20/09/25","15:00",0.0,22.0,95.6,997.9,200.9,0.3,1.3,207.3,0.05,21.3,23.3,"14:50:02",1
"20/09/25","15:10",0.0,21.9,95.7,998.2,184.8,0.7,1.8,209.6,0.06,21.2,23.6,"15:00:16",1
"20/09/25","15:20",0.2,22.3,95.6,997.7,275.1,0.5,0.8,296.8,0.08,21.6,23.6,"15:16:08",1
"20/09/25","15:30",0.2,22.0,95.5,997.9,263.6,0.6,1.1,264.7,0.04,21.3,23.6,"15:28:08",1
"20/09/25","15:40",0.0,21.9,95.5,998.2,249.7,1.0,1.4,240.1,0.02,21.2,23.6,"15:32:08",1
"20/09/25","15:50",0.2,21.9,95.5,998.2,287.6,0.6,1.3,338.0,0.03,21.2,23.6,"15:41:28",1
"20/09/25","16:00",0.4,21.8,95.5,998.2,328.6,0.8,1.6,347.7,0.02,21.1,23.9,"15:51:28",1
"20/09/25","16:10",0.4,21.8,95.5,997.9,291.7,0.5,1.3,309.1,0.01,21.1,23.9,"16:03:28",1
"20/09/25","16:20",0.0,21.7,95.5,998.2,275.0,0.6,1.2,253.6,0.02,21.0,23.8,"16:19:04",1
"20/09/25","16:30",0.2,21.7,95.5,997.9,286.4,0.6,1.1,321.4,0.03,21.0,23.8,"16:28:56",1
"20/09/25","16:40",0.2,21.8,95.5,998.2,272.1,0.7,1.2,310.0,0.02,21.1,23.9,"16:30:08",1
"20/09/25","16:50",0.0,21.7,95.4,998.2,201.3,0.2,1.1,246.1,0.01,21.0,23.6,"16:40:16",1
"20/09/25","17:00",0.0,21.7,95.4,998.2,286.0,0.2,0.8,330.4,0.00,21.0,23.5,"16:53:52",1
"20/09/25","17:10",0.0,21.7,95.4,998.4,186.5,0.1,0.5,157.0,0.00,21.0,24.2,"17:03:04",1
"20/09/25","17:20",0.2,21.7,95.4,998.2,272.7,0.3,0.9,332.1,0.00,21.0,24.2,"17:18:00",1
"20/09/25","17:30",0.0,21.7,95.4,998.2,281.6,0.1,0.8,321.3,0.00,21.0,24.3,"17:20:24",1
"20/09/25","17:40",0.0,21.6,95.4,998.9,288.4,0.2,0.9,306.4,0.00,20.9,24.1,"17:39:44",1
"20/09/25","17:50",0.0,21.6,95.4,998.2,300.1,0.8,1.1,315.1,0.00,20.9,24.0,"17:44:48",1
"20/09/25","18:00",0.0,21.6,95.4,998.6,326.3,1.0,1.6,324.1,0.00,20.9,24.1,"17:58:24",1
"20/09/25","18:10",0.0,21.5,95.4,998.6,314.6,0.7,1.6,331.9,0.00,20.8,23.9,"18:09:36",1
"20/09/25","18:20",0.2,21.4,95.4,998.6,323.1,0.8,1.4,335.0,0.00,20.7,23.8,"18:15:12",1
"20/09/25","18:30",0.0,21.3,95.4,998.6,316.5,0.8,1.3,329.8,0.00,20.6,23.9,"18:25:44",1
"20/09/25","18:40",0.0,21.2,95.5,998.9,321.4,1.0,1.8,332.0,0.00,20.5,24.0,"18:39:20",1
"20/09/25","18:50",0.0,21.1,95.5,998.6,310.4,1.0,1.8,328.5,0.00,20.4,23.9,"18:47:20",1
"20/09/25","19:00",0.0,21.0,95.6,998.6,328.2,1.3,2.8,332.1,0.00,20.3,23.8,"18:56:32",1
"20/09/25","19:10",0.0,21.0,95.6,999.1,327.5,1.5,2.7,312.5,0.00,20.3,23.6,"19:09:36",1
"20/09/25","19:20",0.0,21.0,95.6,999.3,319.2,1.0,1.8,336.8,0.00,20.3,23.4,"19:14:08",1
"20/09/25","19:30",0.0,20.9,95.6,999.3,317.1,1.0,1.9,335.2,0.00,20.2,23.4,"19:25:12",1
"20/09/25","19:40",0.0,20.9,95.7,999.3,312.6,0.6,1.1,320.3,0.00,20.2,23.6,"19:35:36",1
"20/09/25","19:50",0.0,20.9,95.6,999.8,304.0,0.6,1.2,330.4,0.00,20.2,23.6,"19:41:52",1
"20/09/25","20:00",0.0,20.9,95.7,999.8,326.9,1.0,2.2,345.4,0.00,20.2,23.5,"19:58:32",1
"20/09/25","20:10",0.0,20.9,95.7,999.6,314.0,0.8,1.9,334.5,0.00,20.2,23.4,"20:02:56",1
"20/09/25","20:20",0.0,20.9,95.7,1000.0,300.7,0.7,1.2,336.6,0.00,20.2,23.4,"20:12:16",1
"20/09/25","20:30",0.0,20.9,95.7,1000.0,254.5,0.2,0.9,262.7,0.00,20.2,23.4,"20:21:28",1
"20/09/25","20:40",0.0,20.9,95.8,999.8,321.6,0.6,1.1,353.2,0.00,20.2,23.7,"20:38:08",1
"20/09/25","20:50",0.0,20.9,95.8,1000.0,308.3,0.7,1.1,335.6,0.00,20.2,23.4,"20:40:48",1
"20/09/25","21:00",0.0,20.9,95.8,1000.3,311.7,0.7,1.2,334.0,0.00,20.2,23.5,"20:55:04",1
"20/09/25","21:10",0.0,20.8,95.8,1000.5,296.6,0.7,1.2,319.9,0.00,20.1,23.6,"21:06:40",1
"20/09/25","21:20",0.0,20.9,95.8,1000.0,329.1,1.1,1.9,339.1,0.00,20.2,23.4,"21:10:02",1
"20/09/25","21:30",0.0,20.9,95.9,1000.0,340.0,1.0,2.1,339.7,0.00,20.3,23.0,"21:26:00",1
"20/09/25","21:40",0.0,20.9,95.9,1000.5,7.7,0.3,1.1,339.6,0.00,20.3,23.0,"21:38:16",1
"20/09/25","21:50",0.0,20.8,95.9,1000.3,322.8,0.3,0.9,337.0,0.00,20.2,23.1,"21:45:04",1
"20/09/25","22:00",0.0,20.8,96.0,1000.3,317.5,0.5,1.4,351.1,0.00,20.2,23.2,"21:59:04",1
"20/09/25","22:10",0.0,20.7,96.0,1000.3,320.4,0.7,1.8,327.2,0.00,20.1,23.1,"22:00:32",1
"20/09/25","22:20",0.0,20.7,96.0,1000.3,333.0,0.8,2.1,337.3,0.00,20.1,23.2,"22:14:24",1
"20/09/25","22:30",0.0,20.7,96.0,1000.5,351.6,0.3,0.8,36.6,0.00,20.1,23.1,"22:23:20",1
"20/09/25","22:40",0.0,20.7,96.0,1000.8,331.6,0.2,0.8,330.8,0.00,20.1,23.2,"22:34:56",1
"20/09/25","22:50",0.0,20.7,96.0,1000.5,320.7,0.6,1.0,347.2,0.00,20.1,22.9,"22:43:12",1
"20/09/25","23:00",0.0,20.7,96.0,1000.5,311.7,0.3,0.9,309.9,0.00,20.1,23.1,"22:59:28",1
"20/09/25","23:10",0.0,20.6,96.1,1000.8,296.9,0.5,0.8,240.2,0.00,20.0,23.1,"23:02:32",1
"20/09/25","23:20",0.0,20.6,96.1,1000.8,327.5,0.6,1.2,332.3,0.00,20.0,23.3,"23:17:04",1
"20/09/25","23:30",0.0,20.6,96.1,1001.0,329.2,0.7,1.2,354.9,0.00,20.0,23.1,"23:21:04",1
"20/09/25","23:40",0.0,20.7,96.2,1001.0,310.0,0.2,0.8,292.9,0.00,20.1,23.1,"23:33:04",1
"20/09/25","23:50",0.0,20.7,96.1,1001.2,71.0,0.2,0.6,281.5,0.00,20.1,23.1,"23:42:16",1
"20/09/25","24:00",0.0,20.5,96.1,1001.0,30.4,0.2,0.8,22.3,0.00,19.9,23.2,"23:54:16",1
